Weather History for KLNS - November, 2012

Change the Weather History Date:

Tuesday, November 27, 2012

  Actual Average Record
Temperature  
Mean Temperature 34 °F -  
Max Temperature 37 °F 52 °F 66 °F (1979)
Min Temperature 32 °F 32 °F 19 °F (1991)
Degree Days  
Heating Degree Days 30    
Moisture  
Dew Point 30 °F    
Average Humidity 87    
Maximum Humidity 96    
Minimum Humidity 70    
Precipitation  
Precipitation 0.32 in - - ()
Sea Level Pressure  
Sea Level Pressure 30.23 in    
Wind  
Wind Speed 5 mph (NNE)    
Max Wind Speed 10 mph    
Max Gust Speed -    
Visibility 3 miles    
Events Fog , Rain , Snow    
Averages and records for this station are not official NWS values.
T = Trace of Precipitation, MM = Missing Value Source: NWS Daily Summary

Daily Weather History Graph

Daily Weather History Graph

Search for Another Location

Airport or City:

Trip Planner

Search our weather history database for the weather conditions in past years. The results will help you decide how hot, cold, wet, or windy it might be!

Date:

Astronomy

Nov. 27, 2012 Rise Set
Actual Time 7:04 AM EST 4:41 PM EST
Civil Twilight 6:34 AM EST 5:11 PM EST
Nautical Twilight 6:01 AM EST 5:44 PM EST
Astronomical Twilight 5:28 AM EST 6:17 PM EST
Moon 4:11 PM EST (11/27) 6:07 AM EST (11/27)
Length of Visible Light 10h 36m
Length of Day
9h 36m
Waxing Gibbous, 99% of the Moon is Illuminated
Nov 27
Waxing Gibbous
Nov 28
Full
Dec 6
Last Quarter
Dec 13
New
Dec 20
First Quarter

Hourly Weather History & Observations

Time (EST) Temp. Windchill Dew Point Humidity Pressure Visibility Wind Dir Wind Speed Gust Speed Precip Events Conditions
12:53 AM 32.0 °F - 26.1 °F 79% 30.24 in 4.0 mi Calm Calm - N/A   Haze
1:53 AM 32.0 °F 28.7 °F 27.0 °F 82% 30.23 in 5.0 mi East 3.5 mph - N/A   Haze
2:53 AM 34.0 °F 31.0 °F 27.0 °F 75% 30.23 in 6.0 mi ESE 3.5 mph - N/A   Haze
3:53 AM 35.1 °F 32.2 °F 27.0 °F 72% 30.23 in 6.0 mi NE 3.5 mph - N/A   Haze
4:53 AM 36.0 °F - 28.0 °F 73% 30.23 in 6.0 mi Calm Calm - 0.00 in Rain Light Rain
5:46 AM 37.4 °F 34.9 °F 28.4 °F 70% 30.22 in 4.0 mi ENE 3.5 mph - 0.00 in Rain Light Rain
5:53 AM 37.0 °F 34.5 °F 28.9 °F 73% 30.23 in 4.0 mi NE 3.5 mph - 0.01 in Rain Light Rain
6:53 AM 35.1 °F 28.6 °F 30.9 °F 85% 30.25 in 3.0 mi NNE 8.1 mph - 0.08 in Rain Rain
7:06 AM 33.8 °F 25.8 °F 30.2 °F 87% 30.23 in 1.8 mi NE 10.4 mph - 0.02 in Snow Light Snow
7:18 AM 33.8 °F 26.4 °F 30.2 °F 87% 30.23 in 0.8 mi NE 9.2 mph - 0.05 in Snow Light Snow
7:42 AM 32.0 °F 25.6 °F 30.2 °F 93% 30.23 in 0.2 mi ENE 6.9 mph - 0.08 in Fog , Snow Heavy Snow
7:53 AM 32.0 °F 26.4 °F 30.9 °F 96% 30.25 in 0.2 mi ENE 5.8 mph - 0.10 in Fog , Snow Heavy Snow
8:24 AM 32.0 °F 26.4 °F 30.2 °F 93% 30.23 in 0.5 mi NE 5.8 mph - 0.03 in Fog , Snow Snow
8:53 AM 32.0 °F 24.2 °F 30.9 °F 96% 30.24 in 0.5 mi NE 9.2 mph - 0.05 in Fog , Snow Snow
9:01 AM 32.0 °F 24.8 °F 30.2 °F 93% 30.23 in 0.5 mi NE 8.1 mph - 0.00 in Fog , Snow Light Snow
9:36 AM 33.8 °F 26.4 °F 30.2 °F 87% 30.24 in 1.0 mi NNE 9.2 mph - 0.02 in Snow Light Snow
9:53 AM 33.1 °F 25.5 °F 30.9 °F 92% 30.26 in 0.8 mi NE 9.2 mph - 0.03 in Snow Light Snow
10:15 AM 33.8 °F 26.4 °F 30.2 °F 87% 30.24 in 1.2 mi NE 9.2 mph - 0.02 in Rain Light Rain
10:43 AM 33.8 °F 28.6 °F 30.2 °F 87% 30.25 in 2.0 mi NE 5.8 mph - 0.02 in Rain Light Rain
10:53 AM 33.1 °F 27.7 °F 30.9 °F 92% 30.26 in 2.0 mi NE 5.8 mph - 0.03 in Rain Light Rain
11:19 AM 33.8 °F 27.7 °F 30.2 °F 87% 30.23 in 1.8 mi NE 6.9 mph - 0.00 in Rain Light Rain
11:53 AM 33.1 °F 27.7 °F 30.9 °F 92% 30.23 in 1.2 mi ENE 5.8 mph - 0.01 in Rain Light Rain
12:53 PM 34.0 °F 28.0 °F 30.9 °F 89% 30.22 in 1.5 mi NNE 6.9 mph - 0.01 in   Overcast
1:07 PM 33.8 °F 27.7 °F 32.0 °F 93% 30.21 in 2.0 mi NNE 6.9 mph - 0.00 in Rain Light Rain
1:46 PM 35.6 °F 29.9 °F 32.0 °F 87% 30.20 in 3.0 mi North 6.9 mph - 0.00 in   Overcast
1:53 PM 35.1 °F 29.3 °F 32.0 °F 89% 30.21 in 3.0 mi NNE 6.9 mph - 0.00 in   Overcast
2:31 PM 35.6 °F 31.7 °F 32.0 °F 87% 30.20 in 3.0 mi North 4.6 mph - 0.00 in   Overcast
2:43 PM 35.6 °F 31.7 °F 32.0 °F 87% 30.20 in 2.5 mi North 4.6 mph - 0.00 in   Overcast
2:53 PM 35.1 °F 32.2 °F 32.0 °F 89% 30.21 in 2.5 mi NNW 3.5 mph - 0.00 in   Overcast
3:33 PM 35.6 °F 30.7 °F 32.0 °F 87% 30.20 in 3.0 mi North 5.8 mph - N/A   Overcast
3:44 PM 35.6 °F 30.7 °F 32.0 °F 87% 30.20 in 3.0 mi North 5.8 mph - N/A   Overcast
3:53 PM 35.1 °F 28.6 °F 32.0 °F 89% 30.22 in 4.0 mi NNW 8.1 mph - N/A   Overcast
4:53 PM 35.1 °F 32.2 °F 32.0 °F 89% 30.22 in 4.0 mi North 3.5 mph - N/A   Overcast
5:53 PM 35.1 °F 32.2 °F 32.0 °F 89% 30.23 in 4.0 mi NNW 3.5 mph - N/A   Overcast
6:49 PM 35.6 °F 31.7 °F 32.0 °F 87% 30.22 in 4.0 mi WNW 4.6 mph - N/A   Overcast
6:53 PM 35.1 °F 31.0 °F 32.0 °F 89% 30.24 in 4.0 mi WNW 4.6 mph - N/A   Overcast
7:53 PM 35.1 °F 32.2 °F 32.0 °F 89% 30.25 in 5.0 mi NNW 3.5 mph - N/A   Overcast
8:53 PM 35.1 °F 30.1 °F 30.0 °F 82% 30.26 in 7.0 mi NNW 5.8 mph - N/A   Mostly Cloudy
9:53 PM 35.1 °F 30.1 °F 30.0 °F 82% 30.27 in 7.0 mi NNW 5.8 mph - N/A   Overcast
10:53 PM 34.0 °F 29.8 °F 30.9 °F 89% 30.27 in 6.0 mi West 4.6 mph - N/A   Overcast
11:53 PM 33.1 °F 28.7 °F 30.9 °F 92% 30.25 in 3.0 mi WNW 4.6 mph - N/A   Overcast